577  
ASUS44 KLUB 191110  
RWRLUB  
WEST TEXAS WEATHER ROUNDUP  
NATIONAL WEATHER SERVICE LUBBOCK TX  
600 AM CDT SAT AUG 19 2017  
 
NOTE: "FAIR" INDICATES FEW OR NO CLOUDS BELOW 12,000 FEET WITH NO  
SIGNIFICANT WEATHER AND/OR S TO VISIBILITY
.  
 
TXZ004-006>008-010-012-014-016-OKZ002-191200-  
TEXAS PANHANDLE/OKLAHOMA PANHANDLE  
 
CITY SKY/WX TMP DP RH WIND PRES REMARKS
 
AMARILLO CLEAR 68 63 84 S10 30.10R  
BORGER CLEAR 73 65 75 SW6 30.06R  
CANADIAN CLEAR 70 69 95 SW5 30.01S  
DALHART CLEAR 63 63 100 SW6 30.11S  
DUMAS CLEAR 66 63 89 SW8 30.08F  
GUYMON CLEAR 66 66 100 CALM 30.04S  
HEREFORD PTCLDY 66 64 93 S5 30.13R  
PAMPA CLEAR 70 64 82 SW7 30.08R  
PERRYTON CLEAR 72 67 86 CALM 30.03S  

 
 
TXZ026-029-035-045-048-191200-  
SOUTHERN PANHANDLE/SOUTH PLAINS/ROLLING PLAINS  
 
CITY SKY/WX TMP DP RH WIND PRES REMARKS
 
CHILDRESS CLEAR 74 67 78 S3 30.02R  
SEMINOLE CLEAR 66 60 80 CALM 30.10F  
LUBBOCK CLEAR 68 62 81 W7 30.08S  
PLAINVIEW CLEAR 64 62 91 NW5 30.09R  
SNYDER PTCLDY 71 67 87 S5 30.06R  

 
 
TXZ052-054-060>062-072-078-127-140-154-169-191200-  
PERMIAN BASIN/CONCHO VALLEY/BIG COUNTRY/EDWARDS PLATEAU  
 
CITY SKY/WX TMP DP RH WIND PRES REMARKS
 
ABILENE PTCLDY 73 69 87 S6 30.03R  
BIG SPRING PTCLDY 71 67 89 CALM 30.09S  
BROWNWOOD MOCLDY 75 68 78 CALM 30.03R  
JUNCTION CLEAR 77 69 76 SE3 30.04R  
MIDLAND CLEAR 73 65 75 E5 30.07S  
ODESSA CLEAR 74 65 73 SE7 30.08S  
SAN ANGELO CLEAR 73 66 78 SW3 30.03R  
SONORA CLEAR 75 72 88 S6 30.09R  
SWEETWATER PTCLDY 76 67 73 S10 30.08R  
WINK PTCLDY 73 65 75 E5 30.03S  

 
 
TXZ055-058-074-075-080-082-191200-  
FAR WEST/SOUTHWEST MOUNTAINS/TRANS PECOS  
 
CITY SKY/WX TMP DP RH WIND PRES REMARKS
 
ALPINE PTCLDY 67 61 82 S5 30.21S  
DRYDEN N/A 72 68 87 CALM 30.02R  
EL PASO MOCLDY 72 62 71 SE3 30.09S  
FORT STOCKTON CLOUDY 72 67 84 S8 30.06R  
GUADALUPE PASS CLEAR 67 58 72 SW10 30.21S  
MARFA CLOUDY 66 63 90 CALM 30.20S  
PECOS CLOUDY 72 65 79 CALM 30.03S  
PRESIDIO FAIR 73 67 81 CALM 30.09R  

 
 
TXZ014-016-019-021>030-083-191200  
TEXAS TECH WEST TEXAS MESONET/TEXAS PANHANDLE/NORTHERN SOUTH PLAINS  
 
CITY SKY/WX TMP DP RH WIND PRES REMARKS
 
ABERNATHY 5ENE N/A 66 63 89 SW5 30.10S  
AMARILLO 9NNE N/A 68 67 94 S6 30.08S  
AMARILLO 7SSE N/A 63 62 95 S5 30.12S  
AMHERST 1NE N/A 66 62 86 SW6 30.11S  
BOOTLEG 11WNW N/A 62 59 90 SW7 30.17R  
CANADIAN 6E N/A 71 67 87 N1 30.00R  
CAPROCK CYN SP N/A 77 64 63 W9 30.05R  
CHILDRESS 2NNE N/A 75 65 72 SW8 30.01R  
CLARENDON 2WSW N/A 70 64 79 SW9 30.06R  
CLAUDE 12SW N/A 73 62 66 SW3 30.11S  
DIMMITT 2NE N/A 67 62 83 S9 30.12S  
FLOYDADA 2NNE N/A 65 62 91 SW5 30.09R  
FRIONA 2NE N/A 66 62 88 S3 30.15R  
GOODLETT 3W N/A 73 67 81 SW6 29.99R  
HART 3N N/A 62 60 93 W5 30.12S  
HEREFORD 2NW N/A 66 60 81 S5 30.12R  
MCLEAN 1E N/A 70 65 84 SW6 30.04S  
MEMPHIS 1NE N/A 70 67 88 NW1 30.02S  
MULESHOE 2SSW N/A 64 61 88 W2 30.11S  
OLTON 6S N/A 63 60 88 NW6 30.10S  
PALO DURO SP N/A 69 62 81 S2 30.11S  
PAMPA 2E N/A 70 64 81 SW7 30.07S  
PLAINVIEW 1S N/A 65 64 94 W5 30.10R  
SILVERTON 7ESE N/A 67 63 86 SW9 30.09R  
TULIA 2ENE N/A 66 64 93 SW8 30.10S  
TURKEY 2WSW N/A 72 66 81 SW5 30.04R  
UMBARGER 3NNE N/A 65 63 92 SW8 30.12S  

 
 
TXZ033>036-039>041-045>048-191200  
TEXAS TECH WEST TEXAS MESONET/SOUTH PLAINS  
 
CITY SKY/WX TMP DP RH WIND PRES REMARKS
 
AIKEN 3WSW N/A 65 65 100 NW2 30.11S  
ANDREWS 2NE N/A 68 60 76 NE2 30.09S  
ANTON 6SSW N/A 64 61 91 S1 30.10S  
BROWNFIELD 2S N/A 67 60 78 W3 30.10S  
DENVR CTY 7WNW N/A 64 59 83 N3 30.11S  
GAIL 2ESE N/A 67 62 84 S2 30.05S  
LAMESA 2SE N/A 68 63 85 CALM 30.08S  
LUBBOCK 3WNW N/A 66 62 87 S1 30.09S  
MORTON 1ENE N/A 68 61 79 SW6 30.12S  
ODONNELL 1N N/A 67 60 80 NW1 30.07F  
PLAINS 3N N/A 66 60 81 W3 30.12S  
RALLS 1SE N/A 69 62 79 W3 30.09S  
REESE CENTER N/A 65 60 84 SW7 30.09S  
SEAGRAVES 1SW N/A 64 60 88 N1 30.09F  
SEMINOLE 2NNE N/A 66 59 78 N5 30.09F  
SLATON 2NE N/A 69 61 75 SW6 30.08S  
SNYDER 3E N/A 72 67 86 S6 30.05S  
SUNDOWN 8SW N/A 64 60 88 W7 30.11S  
TAHOKA 3NNE N/A 66 62 86 SW2 30.08F  
WOLFFORTH 6SSW N/A 65 62 89 SW5 30.09F  

 
 
TXZ031-032-036>038-042>044-191200-  
TEXAS TECH WEST TEXAS MESONET/ROLLING PLAINS  
 
CITY SKY/WX TMP DP RH WIND PRES REMARKS
 
ASPERMONT 3NE N/A 73 68 85 S6 30.01R  
FLUVANNA 3WNW N/A 70 64 80 S3 30.06S  
GRAHAM 5SSW N/A 70 61 72 W7 30.07S  
GUTHRIE 10WSW N/A 71 65 81 S3 30.01S  
HASKELL 1NW N/A 74 67 78 S8 29.99S  
JAYTON 1SSE N/A 72 65 79 S3 30.02S  
KNOX CITY 3NW N/A 73 68 82 SW5 29.99S  
LK A HENRY 1NW N/A 71 65 79 W2 30.04S  
NORTHFIELD 1S N/A 72 65 78 SW2 30.02R  
ODELL 4ENE N/A 73 71 93 CALM 29.99R  
PADUCAH 10SW N/A 71 66 83 SW6 30.01S  
POST 1NE N/A 72 61 68 W6 30.05S  
RRING SPRGS 3N N/A 70 66 85 SW6 30.04S  
SEYMOUR 3NW N/A 76 70 81 S6 29.98R  
SPUR 1W N/A 69 64 82 N2 30.03R  
WEINERT 2NNE N/A 74 71 89 S6 29.99S  
WHITE RVR 6NE N/A 75 61 62 SW2 30.05S  

 
 
TXZ052-054-060>062-072-078-127-140-154-169-191200-  
TEXAS TECH WEST TEXAS MESONET/PERMIAN BASIN/  
CONCHO VALLEY/BIG COUNTRY/EDWARDS PLATEAU  
 
CITY SKY/WX TMP DP RH WIND PRES REMARKS
 
COYANOSA 2N N/A 73 66 79 E7 30.04S  
JUNCTION 1SSW N/A 75 68 78 S1 30.05S  
MERTZON 3NNE N/A 72 68 88 S1 30.05S  
SAN ANGELO 7NW N/A 75 65 72 E1 30.04S  
STRLNG CT 4WSW N/A 70 68 94 CALM 30.07R  
ST LAWRNCE 5SW N/A 71 65 83 SE6 30.07S  
SWEETWATR 11SW N/A 74 67 78 S8 30.07S  
WALL 1E N/A 72 69 91 SE2 30.05R  

 
 
TXZ055-058-074-075-080-082-191200-  
TEXAS TECH WEST TEXAS MESONET/FAR WEST/SOUTHWEST MOUNTAINS/TRANS PECOS  
 
CITY SKY/WX TMP DP RH WIND PRES REMARKS
 
PRSMN GAP BBNP N/A 72 63 74 S1 30.07R  
GUADLPE MTN NP N/A 67 54 61 W6 30.22R  

 
 
 
CLICK HERE TO GO TO PREVIOUS BULLETINS.

The Nexlab TX Page Main Text Page